QPF
0.00 0.00 0.00 0.00 0.00 0.00 0.00 0.00 0.00 0.00 0.00 0.00 0.00 0.00 0.00 0.00 0.00 0.00 0.00 0.00 0.00 0.00 0.00 0.00 0.00 0.00 0.00 0.00 0.00 0.00 0.00 0.00 0.00 0.00 0.00 0.00 0.00 0.00 0.00 0.00 0.00 0.00 0.00 0.00
0.00 0.00 0.00 0.00 0.00 0.00 0.00 0.00 0.00 0.00 0.00 0.00 0.00 0.00 0.00 0.00 0.00 0.00 0.00 0.00 0.00 0.00 0.00 0.00 0.00 0.00 0.00 0.00 0.00 0.00 0.00 0.00 0.00 0.00 0.00 0.00 0.00 0.00 0.00 0.00 0.00 0.00 0.00 0.00
0.00 0.00 0.00 0.00 0.00 0.00 0.00 0.00 0.00 0.00 0.00 0.00 0.00 0.00 0.00 0.00 0.00 0.00 0.00 0.00 0.00 0.00 0.00 0.00 0.00 0.00 0.00 0.00 0.00 0.00 0.00 0.00 0.00 0.00 0.00 0.00 0.00 0.00 0.00 0.00 0.00 0.00 0.00 0.00
0.00 0.00 0.00 0.00 0.00 0.00 0.00 0.00 0.00 0.00 0.00 0.00 0.00 0.00 0.00 0.00 0.00 0.00 0.00 0.00 0.00 0.00 0.00 0.00 0.00 0.00 0.00 0.00 0.00 0.00 0.00 0.00 0.00 0.00 0.00 0.00 0.00 0.00 0.00 0.00 0.00 0.00 0.00 0.00
0.00 0.00 0.00 0.00 0.00 0.00 0.00 0.00 0.00 0.00 0.00 0.00 0.00 0.00 0.00 0.00 0.00 0.00 0.00 0.00 0.00 0.00 0.00 0.00 0.00 0.00 0.00 0.00 0.00 0.00 0.00 0.00 0.00 0.00 0.00 0.00 0.00 0.00 0.00 0.00 0.00 0.00 0.00 0.00
0.00 0.00 0.00 0.00 0.00 0.00 0.00 0.00 0.00 0.00 0.00 0.00 0.00 0.00 0.00 0.00 0.00 0.00 0.00 0.00 0.00 0.00 0.00 0.00 0.00 0.00 0.00 0.00 0.00 0.00 0.00 0.00 0.00 0.00 0.00 0.00 0.00 0.00 0.00 0.00 0.00 0.00 0.00 0.00
0.00 0.00 0.00 0.00 0.00 0.00 0.00 0.00 0.00 0.00 0.00 0.00 0.00 0.00 0.00 0.00 0.00 0.00 0.00 0.00 0.00 0.00 0.00 0.00 0.00 0.00 0.00 0.00 0.00 0.00 0.00 0.00 0.00 0.00 0.00 0.00 0.00 0.00 0.00 0.00 0.00 0.00 0.00 0.00
0.00 0.00 0.00 0.00 0.00 0.00 0.00 0.00 0.00 0.00 0.00 0.00 0.00 0.00 0.00 0.00 0.00 0.00 0.00 0.00 0.00 0.00 0.00 0.00 0.00 0.00 0.00 0.00 0.00 0.00 0.00 0.00 0.00 0.00 0.00 0.00 0.00 0.00 0.00 0.00 0.00 0.00 0.00 0.00
0.00 0.00 0.00 0.00 0.00 0.00 0.00 0.00 0.00 0.00 0.00 0.00 0.00 0.00 0.00 0.00 0.00 0.00 0.00 0.00 0.00 0.00 0.00 0.00 0.00 0.00 0.00 0.00 0.00 0.00 0.00 0.00 0.00 0.00 0.00 0.00 0.00 0.00 0.00 0.00 0.00 0.00 0.00 0.00
0.00 0.00 0.00 0.00 0.00 0.00 0.00 0.00 0.00 0.00 0.00 0.00 0.00 0.00 0.00 0.00 0.00 0.00 0.00 0.00 0.00 0.00 0.00 0.00 0.00 0.00 0.00 0.00 0.00 0.00 0.00 0.00 0.00 0.00 0.00 0.00 0.00 0.00 0.00 0.00 0.00 0.00 0.00 0.00
0.00 0.00 0.00 0.00 0.00 0.00 0.00 0.00 0.00 0.00 0.00 0.00 0.00 0.00 0.00 0.00 0.00 0.00 0.00 0.00 0.00 0.00 0.00 0.00 0.00 0.00 0.00 0.00 0.00 0.00 0.00 0.00 0.00 0.00 0.00 0.00 0.00 0.00 0.00 0.00 0.00 0.00 0.00 0.00
0.00 0.00 0.00 0.00 0.00 0.00 0.00 0.00 0.00 0.00 0.00 0.00 0.00 0.00 0.00 0.00 0.00 0.00 0.00 0.00 0.00 0.00 0.00 0.00 0.00 0.00 0.00 0.00 0.00 0.00 0.00 0.00 0.00 0.00 0.00 0.00 0.00 0.00 0.00 0.00 0.00 0.00 0.00 0.00
0.00 0.00 0.00 0.00 0.00 0.00 0.00 0.00 0.00 0.00 0.00 0.00 0.00 0.00 0.00 0.00 0.00 0.00 0.00 0.00 0.00 0.00 0.00 0.00 0.00 0.00 0.00 0.00 0.00 0.00 0.00 0.00 0.00 0.00 0.00 0.00 0.00 0.00 0.00 0.00 0.00 0.00 0.00 0.00
0.00 0.00 0.00 0.00 0.00 0.00 0.00 0.00 0.00 0.00 0.00 0.00 0.00 0.00 0.00 0.00 0.00 0.00 0.00 0.00 0.00 0.00 0.00 0.00 0.00 0.00 0.00 0.00 0.00 0.00 0.00 0.00 0.00 0.00 0.00 0.00 0.00 0.00 0.00 0.00 0.00 0.00 0.00 0.00
0.00 0.00 0.00 0.00 0.00 0.00 0.00 0.00 0.00 0.00 0.00 0.00 0.00 0.00 0.00 0.00 0.00 0.00 0.00 0.00 0.00 0.00 0.00 0.00 0.00 0.00 0.00 0.00 0.00 0.00 0.00 0.00 0.00 0.00 0.00 0.00 0.00 0.00 0.00 0.00 0.00 0.00 0.00 0.00
0.00 0.00 0.00 0.00 0.00 0.00 0.00 0.00 0.00 0.00 0.00 0.00 0.00 0.00 0.00 0.00 0.00 0.00 0.00 0.00 0.00 0.00 0.00 0.00 0.00 0.00 0.00 0.00 0.00 0.00 0.00 0.00 0.00 0.00 0.00 0.00 0.00 0.00 0.00 0.00 0.00 0.00 0.00 0.00
0.00 0.00 0.00 0.00 0.00 0.00 0.00 0.00 0.00 0.00 0.00 0.00 0.00 0.00 0.00 0.00 0.00 0.00 0.00 0.00 0.00 0.00 0.00 0.00 0.00 0.00 0.00 0.00 0.00 0.00 0.00 0.00 0.00 0.00 0.00 0.00 0.00 0.00 0.00 0.00 0.00 0.00 0.00 0.00
0.00 0.00 0.00 0.00 0.00 0.00 0.00 0.00 0.00 0.00 0.00 0.00 0.00 0.00 0.00 0.00 0.00 0.00 0.00 0.00 0.00 0.00 0.00 0.00 0.00 0.00 0.00 0.00 0.00 0.00 0.00 0.00 0.00 0.00 0.00 0.00 0.00 0.00 0.00 0.00 0.00 0.00 0.00 0.00
0.00 0.00 0.00 0.00 0.00 0.00 0.00 0.00 0.00 0.00 0.00 0.00 0.00 0.00 0.00 0.00 0.00 0.00 0.00 0.00 0.00 0.00 0.00 0.00 0.00 0.00 0.00 0.00 0.00 0.00 0.00 0.00 0.00 0.00 0.00 0.00 0.00 0.00 0.00 0.00 0.00 0.00 0.00 0.00
0.00 0.00 0.00 0.00 0.00 0.00 0.00 0.00 0.00 0.00 0.00 0.00 0.00 0.00 0.00 0.00 0.00 0.00 0.00 0.00 0.00 0.00 0.00 0.00 0.00 0.00 0.00 0.00 0.00 0.00 0.00 0.00 0.00 0.00 0.00 0.00 0.00 0.00 0.00 0.00 0.00 0.00 0.00 0.00
0.00 0.00 0.00 0.00 0.00 0.00 0.00 0.00 0.00 0.00 0.00 0.00 0.00 0.00 0.00 0.00 0.00 0.00 0.00 0.00 0.00 0.00 0.00 0.00 0.00 0.00 0.00 0.00 0.00 0.00 0.00 0.00 0.00 0.00 0.00 0.00 0.00 0.00 0.00 0.00 0.00 0.00 0.00 0.01
0.00 0.00 0.00 0.00 0.00 0.00 0.00 0.00 0.00 0.00 0.00 0.00 0.00 0.00 0.00 0.00 0.00 0.00 0.00 0.00 0.00 0.00 0.00 0.00 0.00 0.00 0.00 0.00 0.00 0.00 0.00 0.00 0.00 0.00 0.00 0.00 0.00 0.00 0.00 0.00 0.00 0.00 0.01 0.01
0.00 0.00 0.00 0.00 0.00 0.00 0.00 0.00 0.00 0.00 0.00 0.00 0.00 0.00 0.00 0.00 0.00 0.00 0.00 0.00 0.00 0.00 0.00 0.00 0.00 0.00 0.00 0.00 0.00 0.00 0.00 0.00 0.00 0.00 0.00 0.00 0.00 0.00 0.00 0.00 0.01 0.01 0.01 0.01
0.00 0.00 0.00 0.00 0.00 0.00 0.00 0.00 0.00 0.00 0.00 0.00 0.00 0.00 0.00 0.00 0.00 0.00 0.00 0.00 0.00 0.00 0.00 0.00 0.00 0.00 0.00 0.00 0.00 0.00 0.00 0.00 0.00 0.00 0.00 0.00 0.00 0.00 0.00 0.01 0.01 0.01 0.01 0.02
0.00 0.00 0.00 0.00 0.00 0.00 0.00 0.00 0.00 0.00 0.00 0.00 0.00 0.00 0.00 0.00 0.00 0.00 0.00 0.00 0.00 0.00 0.00 0.00 0.00 0.00 0.00 0.00 0.00 0.00 0.00 0.00 0.00 0.00 0.00 0.00 0.00 0.00 0.01 0.01 0.01 0.01 0.01 0.02
0.00 0.00 0.00 0.00 0.00 0.00 0.00 0.00 0.00 0.00 0.00 0.00 0.00 0.00 0.00 0.00 0.00 0.00 0.00 0.00 0.00 0.00 0.00 0.00 0.00 0.00 0.00 0.00 0.00 0.00 0.00 0.00 0.00 0.00 0.00 0.00 0.01 0.01 0.01 0.01 0.01 0.00 0.01 0.01
MSLP
1018.23 1018.76 1019.17 1019.46 1019.64 1019.74 1019.77 1019.76 1019.70 1019.60 1019.44 1019.23 1018.94 1018.61 1018.22 1017.82 1017.44 1017.08 1016.76 1016.50 1016.27 1016.07 1015.89 1015.73 1015.58 1015.46 1015.39 1015.39 1015.49 1015.68 1015.97 1016.34 1016.76 1017.19 1017.60 1017.97 1018.28 1018.53 1018.72 1018.88 1019.04 1019.22 1019.44 1019.69
1018.46 1018.85 1019.13 1019.32 1019.45 1019.54 1019.62 1019.69 1019.75 1019.77 1019.72 1019.57 1019.32 1018.97 1018.55 1018.10 1017.66 1017.27 1016.96 1016.73 1016.57 1016.46 1016.37 1016.27 1016.16 1016.04 1015.92 1015.83 1015.81 1015.89 1016.07 1016.34 1016.69 1017.07 1017.46 1017.80 1018.08 1018.29 1018.42 1018.51 1018.57 1018.65 1018.76 1018.92
1018.49 1018.74 1018.90 1019.01 1019.10 1019.22 1019.37 1019.55 1019.74 1019.87 1019.91 1019.82 1019.58 1019.21 1018.73 1018.22 1017.72 1017.31 1017.00 1016.82 1016.75 1016.74 1016.75 1016.75 1016.70 1016.59 1016.45 1016.30 1016.20 1016.17 1016.25 1016.44 1016.72 1017.05 1017.39 1017.70 1017.94 1018.09 1018.14 1018.13 1018.09 1018.05 1018.04 1018.09
1018.38 1018.51 1018.57 1018.62 1018.71 1018.88 1019.12 1019.42 1019.73 1019.97 1020.10 1020.04 1019.80 1019.38 1018.84 1018.26 1017.70 1017.26 1016.96 1016.83 1016.84 1016.94 1017.07 1017.17 1017.19 1017.13 1016.99 1016.81 1016.65 1016.54 1016.53 1016.64 1016.84 1017.11 1017.39 1017.64 1017.81 1017.88 1017.85 1017.73 1017.57 1017.40 1017.26 1017.19
1018.25 1018.26 1018.26 1018.29 1018.40 1018.64 1018.98 1019.40 1019.82 1020.16 1020.34 1020.30 1020.04 1019.58 1018.97 1018.31 1017.71 1017.23 1016.95 1016.86 1016.95 1017.16 1017.39 1017.59 1017.69 1017.68 1017.55 1017.36 1017.14 1016.97 1016.88 1016.90 1017.02 1017.21 1017.41 1017.58 1017.67 1017.64 1017.50 1017.27 1016.99 1016.69 1016.43 1016.24
1018.15 1018.09 1018.05 1018.09 1018.25 1018.57 1019.01 1019.53 1020.05 1020.46 1020.68 1020.66 1020.37 1019.86 1019.19 1018.48 1017.84 1017.35 1017.08 1017.03 1017.19 1017.47 1017.79 1018.07 1018.24 1018.26 1018.14 1017.92 1017.66 1017.42 1017.25 1017.18 1017.21 1017.30 1017.40 1017.47 1017.46 1017.33 1017.08 1016.74 1016.34 1015.94 1015.57 1015.28
1018.12 1018.03 1017.99 1018.07 1018.29 1018.69 1019.23 1019.84 1020.43 1020.89 1021.13 1021.11 1020.81 1020.26 1019.57 1018.82 1018.16 1017.68 1017.42 1017.41 1017.61 1017.95 1018.33 1018.65 1018.84 1018.87 1018.74 1018.49 1018.18 1017.86 1017.61 1017.44 1017.36 1017.33 1017.33 1017.29 1017.16 1016.93 1016.58 1016.15 1015.66 1015.17 1014.73 1014.36
1018.18 1018.09 1018.08 1018.21 1018.50 1018.98 1019.58 1020.25 1020.89 1021.37 1021.63 1021.61 1021.31 1020.76 1020.07 1019.34 1018.69 1018.23 1018.01 1018.03 1018.25 1018.61 1018.99 1019.31 1019.49 1019.49 1019.33 1019.02 1018.64 1018.24 1017.89 1017.62 1017.43 1017.29 1017.17 1017.02 1016.79 1016.46 1016.03 1015.53 1014.97 1014.43 1013.93 1013.52
1018.27 1018.22 1018.26 1018.45 1018.81 1019.33 1019.99 1020.69 1021.33 1021.83 1022.09 1022.08 1021.80 1021.29 1020.64 1019.96 1019.38 1018.97 1018.78 1018.82 1019.05 1019.39 1019.73 1020.01 1020.13 1020.07 1019.84 1019.46 1019.01 1018.53 1018.09 1017.72 1017.42 1017.18 1016.95 1016.70 1016.38 1015.97 1015.48 1014.92 1014.33 1013.75 1013.22 1012.77
1018.36 1018.36 1018.47 1018.71 1019.11 1019.67 1020.33 1021.02 1021.65 1022.14 1022.40 1022.41 1022.17 1021.73 1021.18 1020.60 1020.11 1019.77 1019.64 1019.70 1019.91 1020.21 1020.49 1020.68 1020.71 1020.56 1020.24 1019.79 1019.25 1018.70 1018.18 1017.73 1017.35 1017.02 1016.70 1016.37 1015.97 1015.50 1014.95 1014.36 1013.74 1013.14 1012.59 1012.12
1018.41 1018.48 1018.64 1018.92 1019.35 1019.89 1020.52 1021.17 1021.76 1022.22 1022.48 1022.52 1022.35 1022.01 1021.58 1021.14 1020.78 1020.54 1020.47 1020.55 1020.73 1020.96 1021.15 1021.24 1021.16 1020.92 1020.51 1019.98 1019.38 1018.77 1018.20 1017.69 1017.25 1016.85 1016.46 1016.06 1015.60 1015.08 1014.49 1013.85 1013.21 1012.59 1012.02 1011.52
1018.41 1018.55 1018.77 1019.07 1019.48 1019.99 1020.55 1021.12 1021.64 1022.05 1022.30 1022.38 1022.29 1022.08 1021.80 1021.52 1021.30 1021.18 1021.17 1021.27 1021.42 1021.58 1021.67 1021.64 1021.46 1021.12 1020.64 1020.05 1019.41 1018.78 1018.18 1017.64 1017.16 1016.71 1016.27 1015.80 1015.29 1014.71 1014.07 1013.40 1012.72 1012.07 1011.46 1010.92
1018.43 1018.63 1018.87 1019.17 1019.54 1019.96 1020.43 1020.89 1021.32 1021.66 1021.90 1022.02 1022.02 1021.95 1021.83 1021.72 1021.65 1021.64 1021.70 1021.81 1021.94 1022.02 1022.01 1021.88 1021.60 1021.18 1020.65 1020.04 1019.39 1018.75 1018.15 1017.60 1017.09 1016.60 1016.11 1015.59 1015.01 1014.37 1013.68 1012.95 1012.22 1011.52 1010.86 1010.26
1018.50 1018.75 1019.00 1019.26 1019.56 1019.89 1020.23 1020.57 1020.89 1021.16 1021.37 1021.53 1021.62 1021.68 1021.72 1021.77 1021.84 1021.95 1022.07 1022.19 1022.28 1022.29 1022.20 1021.97 1021.62 1021.15 1020.59 1019.97 1019.33 1018.71 1018.12 1017.57 1017.04 1016.52 1015.98 1015.39 1014.74 1014.03 1013.26 1012.47 1011.67 1010.90 1010.18 1009.53
1018.70 1018.96 1019.20 1019.41 1019.62 1019.82 1020.02 1020.23 1020.44 1020.64 1020.84 1021.02 1021.20 1021.38 1021.57 1021.76 1021.96 1022.15 1022.32 1022.44 1022.49 1022.44 1022.27 1021.98 1021.57 1021.06 1020.49 1019.88 1019.26 1018.66 1018.09 1017.54 1016.99 1016.43 1015.82 1015.16 1014.43 1013.63 1012.78 1011.91 1011.04 1010.21 1009.42 1008.71
1019.04 1019.30 1019.50 1019.65 1019.74 1019.82 1019.89 1019.97 1020.07 1020.21 1020.39 1020.61 1020.86 1021.15 1021.45 1021.76 1022.06 1022.31 1022.51 1022.62 1022.63 1022.52 1022.28 1021.93 1021.48 1020.96 1020.38 1019.79 1019.20 1018.61 1018.04 1017.48 1016.89 1016.27 1015.60 1014.85 1014.03 1013.14 1012.21 1011.27 1010.33 1009.44 1008.61 1007.85
1019.50 1019.75 1019.89 1019.95 1019.94 1019.89 1019.84 1019.81 1019.83 1019.93 1020.10 1020.36 1020.68 1021.05 1021.45 1021.85 1022.21 1022.50 1022.70 1022.78 1022.74 1022.56 1022.27 1021.87 1021.38 1020.84 1020.27 1019.69 1019.11 1018.53 1017.95 1017.35 1016.71 1016.02 1015.27 1014.43 1013.53 1012.57 1011.57 1010.57 1009.59 1008.65 1007.79 1007.00
1020.03 1020.23 1020.31 1020.28 1020.17 1020.03 1019.88 1019.77 1019.74 1019.82 1020.00 1020.30 1020.68 1021.13 1021.60 1022.05 1022.43 1022.73 1022.90 1022.93 1022.83 1022.59 1022.24 1021.79 1021.27 1020.72 1020.14 1019.56 1018.97 1018.38 1017.77 1017.12 1016.42 1015.66 1014.82 1013.91 1012.93 1011.91 1010.88 1009.85 1008.85 1007.91 1007.04 1006.25
1020.51 1020.66 1020.67 1020.57 1020.38 1020.16 1019.95 1019.81 1019.76 1019.85 1020.07 1020.41 1020.85 1021.35 1021.85 1022.32 1022.71 1022.97 1023.09 1023.06 1022.89 1022.58 1022.17 1021.67 1021.13 1020.56 1019.97 1019.38 1018.77 1018.15 1017.50 1016.79 1016.03 1015.19 1014.28 1013.31 1012.29 1011.24 1010.19 1009.17 1008.19 1007.27 1006.42 1005.65
1020.88 1020.97 1020.91 1020.74 1020.50 1020.24 1020.01 1019.87 1019.85 1019.97 1020.24 1020.63 1021.11 1021.64 1022.16 1022.62 1022.97 1023.18 1023.23 1023.12 1022.87 1022.50 1022.03 1021.49 1020.92 1020.33 1019.73 1019.12 1018.50 1017.84 1017.14 1016.38 1015.55 1014.65 1013.69 1012.69 1011.65 1010.60 1009.57 1008.59 1007.65 1006.77 1005.97 1005.21
1021.07 1021.10 1020.99 1020.78 1020.52 1020.25 1020.04 1019.93 1019.96 1020.13 1020.46 1020.90 1021.41 1021.95 1022.45 1022.87 1023.15 1023.29 1023.25 1023.06 1022.73 1022.29 1021.77 1021.21 1020.62 1020.02 1019.41 1018.79 1018.15 1017.46 1016.72 1015.91 1015.04 1014.10 1013.11 1012.09 1011.06 1010.04 1009.05 1008.12 1007.24 1006.42 1005.66 1004.94
1021.10 1021.06 1020.92 1020.69 1020.43 1020.19 1020.02 1019.97 1020.07 1020.31 1020.69 1021.16 1021.68 1022.20 1022.66 1023.01 1023.21 1023.25 1023.12 1022.84 1022.44 1021.95 1021.40 1020.82 1020.22 1019.63 1019.02 1018.40 1017.75 1017.04 1016.27 1015.43 1014.53 1013.57 1012.57 1011.55 1010.54 1009.57 1008.64 1007.76 1006.95 1006.18 1005.46 1004.77
1020.99 1020.92 1020.74 1020.52 1020.29 1020.10 1020.00 1020.02 1020.19 1020.49 1020.90 1021.39 1021.89 1022.36 1022.75 1023.00 1023.10 1023.04 1022.82 1022.46 1022.00 1021.48 1020.91 1020.33 1019.75 1019.17 1018.58 1017.97 1017.32 1016.61 1015.82 1014.97 1014.05 1013.08 1012.09 1011.09 1010.11 1009.18 1008.30 1007.49 1006.73 1006.01 1005.33 1004.66
1020.84 1020.73 1020.56 1020.35 1020.17 1020.04 1020.02 1020.12 1020.34 1020.68 1021.11 1021.57 1022.03 1022.42 1022.71 1022.85 1022.84 1022.67 1022.36 1021.94 1021.44 1020.89 1020.33 1019.77 1019.22 1018.67 1018.11 1017.52 1016.88 1016.18 1015.39 1014.53 1013.61 1012.64 1011.66 1010.68 1009.74 1008.85 1008.02 1007.25 1006.53 1005.85 1005.20 1004.55
1020.71 1020.59 1020.43 1020.26 1020.14 1020.08 1020.12 1020.28 1020.54 1020.90 1021.30 1021.71 1022.09 1022.38 1022.55 1022.57 1022.44 1022.17 1021.79 1021.31 1020.79 1020.24 1019.70 1019.18 1018.67 1018.16 1017.64 1017.08 1016.46 1015.76 1014.98 1014.12 1013.20 1012.24 1011.26 1010.31 1009.39 1008.53 1007.73 1007.00 1006.32 1005.67 1005.04 1004.41
1020.67 1020.55 1020.42 1020.30 1020.23 1020.24 1020.33 1020.53 1020.80 1021.13 1021.48 1021.81 1022.08 1022.25 1022.29 1022.18 1021.94 1021.59 1021.14 1020.64 1020.11 1019.58 1019.07 1018.59 1018.12 1017.66 1017.17 1016.64 1016.03 1015.34 1014.56 1013.70 1012.78 1011.83 1010.87 1009.93 1009.03 1008.20 1007.43 1006.72 1006.07 1005.45 1004.84 1004.23
Thickness
5675 5665 5660 5662 5662 5665 5661 5655 5649 5653 5663 5662 5660 5659 5665 5668 5669 5667 5665 5663 5663 5665 5668 5670 5671 5670 5669 5666 5663 5659 5654 5649 5642 5635 5629 5623 5620 5617 5613 5609 5606 5601 5597 5593
5661 5659 5668 5669 5666 5660 5655 5650 5647 5652 5660 5658 5654 5656 5663 5667 5666 5664 5661 5658 5657 5659 5662 5663 5662 5660 5658 5656 5653 5650 5647 5642 5637 5632 5625 5619 5616 5612 5609 5605 5601 5598 5594 5589
5660 5665 5673 5668 5664 5658 5655 5649 5650 5651 5651 5653 5651 5657 5662 5665 5663 5661 5658 5655 5652 5652 5650 5651 5652 5650 5648 5646 5643 5643 5639 5635 5630 5625 5618 5613 5608 5604 5601 5599 5597 5595 5590 5585
5657 5664 5666 5665 5662 5659 5648 5656 5652 5649 5641 5635 5641 5635 5651 5654 5655 5656 5654 5649 5647 5645 5644 5643 5642 5641 5639 5636 5635 5633 5631 5627 5623 5618 5613 5607 5602 5600 5600 5597 5593 5590 5585 5581
5659 5666 5665 5662 5663 5659 5655 5656 5650 5644 5638 5631 5632 5629 5638 5647 5649 5650 5649 5646 5643 5640 5637 5636 5634 5633 5631 5628 5626 5624 5622 5619 5615 5611 5606 5600 5597 5596 5594 5590 5586 5583 5580 5576
5658 5665 5666 5664 5664 5660 5655 5647 5638 5628 5624 5627 5632 5626 5632 5636 5643 5645 5644 5641 5638 5634 5631 5628 5627 5625 5623 5620 5618 5616 5614 5611 5607 5602 5598 5593 5589 5587 5584 5581 5578 5576 5572 5568
5654 5659 5663 5664 5657 5653 5646 5634 5623 5627 5619 5623 5626 5621 5626 5641 5640 5639 5637 5634 5631 5627 5622 5619 5617 5615 5612 5610 5608 5606 5604 5601 5597 5593 5589 5585 5581 5577 5574 5572 5569 5566 5563 5560
5643 5642 5656 5657 5654 5646 5641 5632 5619 5615 5610 5610 5617 5616 5629 5637 5633 5633 5631 5627 5623 5619 5614 5611 5608 5604 5602 5600 5598 5596 5593 5591 5588 5584 5580 5576 5572 5567 5564 5561 5558 5554 5552 5550
5637 5639 5651 5651 5651 5646 5633 5624 5622 5606 5604 5600 5607 5614 5625 5633 5629 5626 5623 5619 5614 5609 5606 5602 5599 5596 5593 5590 5588 5584 5582 5580 5577 5573 5569 5566 5561 5557 5553 5550 5545 5542 5539 5536
5643 5640 5643 5643 5644 5636 5634 5618 5606 5601 5600 5598 5603 5607 5613 5623 5620 5617 5614 5609 5605 5601 5597 5593 5589 5586 5583 5579 5576 5573 5570 5567 5564 5561 5557 5554 5549 5544 5540 5535 5531 5527 5524 5519
5643 5634 5634 5634 5631 5629 5621 5616 5606 5593 5591 5587 5588 5605 5619 5617 5614 5608 5603 5600 5596 5592 5587 5582 5578 5575 5571 5568 5565 5561 5558 5554 5551 5547 5543 5539 5534 5530 5525 5519 5515 5510 5506 5501
5632 5621 5617 5624 5628 5627 5622 5615 5602 5598 5591 5578 5575 5598 5615 5608 5604 5599 5594 5591 5587 5582 5577 5572 5568 5564 5560 5557 5553 5549 5545 5540 5537 5532 5528 5523 5519 5513 5508 5503 5498 5492 5487 5482
5625 5616 5609 5614 5614 5616 5615 5609 5602 5594 5584 5567 5571 5597 5602 5597 5595 5591 5586 5581 5575 5572 5568 5561 5557 5552 5548 5544 5540 5536 5531 5527 5522 5517 5512 5507 5502 5496 5490 5485 5479 5473 5467 5463
5625 5613 5608 5608 5610 5610 5610 5607 5598 5589 5579 5571 5578 5595 5596 5591 5586 5582 5576 5570 5564 5561 5556 5550 5545 5540 5536 5531 5527 5522 5518 5513 5507 5502 5495 5490 5484 5478 5472 5466 5460 5455 5449 5444
5619 5609 5607 5606 5607 5604 5603 5603 5596 5588 5587 5583 5590 5589 5591 5583 5577 5572 5565 5560 5556 5550 5545 5540 5533 5528 5523 5518 5513 5508 5503 5498 5492 5485 5479 5473 5468 5461 5454 5448 5443 5437 5431 5426
5606 5604 5601 5600 5600 5593 5592 5599 5595 5590 5587 5583 5584 5583 5581 5573 5566 5560 5554 5550 5544 5537 5532 5527 5521 5515 5509 5503 5499 5494 5489 5483 5475 5468 5462 5457 5450 5444 5438 5432 5427 5421 5416 5411
5594 5591 5587 5583 5585 5586 5588 5601 5596 5589 5585 5581 5576 5575 5568 5563 5558 5552 5544 5538 5530 5524 5519 5513 5507 5501 5495 5490 5484 5478 5473 5467 5459 5452 5446 5440 5433 5428 5423 5417 5411 5406 5401 5397
5586 5582 5572 5568 5577 5574 5597 5599 5594 5584 5579 5574 5570 5564 5559 5554 5547 5540 5533 5525 5517 5511 5506 5499 5493 5487 5482 5476 5470 5464 5457 5450 5443 5437 5431 5424 5418 5413 5408 5402 5396 5392 5387 5384
5580 5576 5559 5553 5558 5566 5586 5588 5581 5574 5569 5566 5558 5553 5548 5540 5531 5525 5521 5513 5505 5498 5492 5485 5479 5472 5467 5461 5455 5449 5442 5435 5428 5422 5417 5410 5403 5398 5394 5389 5384 5380 5376 5375
5563 5564 5552 5540 5549 5559 5581 5583 5576 5569 5560 5555 5548 5541 5533 5523 5513 5511 5509 5501 5493 5487 5479 5472 5466 5459 5452 5447 5440 5433 5427 5421 5414 5409 5404 5397 5389 5383 5379 5376 5373 5370 5366 5365
5554 5549 5543 5534 5535 5552 5570 5568 5565 5556 5556 5544 5536 5529 5519 5508 5502 5499 5493 5486 5480 5473 5466 5459 5452 5444 5438 5432 5425 5418 5412 5406 5402 5397 5391 5385 5378 5371 5367 5366 5363 5359 5358 5357
5553 5540 5533 5526 5526 5547 5562 5556 5550 5546 5537 5531 5523 5515 5507 5499 5492 5486 5479 5472 5466 5459 5453 5446 5439 5433 5426 5417 5409 5405 5400 5396 5391 5385 5380 5374 5369 5362 5359 5356 5355 5351 5349 5348
5550 5553 5544 5542 5552 5549 5546 5544 5538 5530 5523 5517 5508 5502 5494 5486 5478 5472 5465 5458 5451 5445 5439 5433 5425 5421 5414 5405 5395 5389 5388 5383 5378 5373 5368 5364 5360 5355 5351 5347 5346 5344 5341 5340
5545 5541 5535 5530 5535 5536 5532 5528 5523 5518 5511 5503 5496 5488 5480 5471 5464 5457 5449 5444 5438 5432 5426 5420 5413 5408 5404 5396 5387 5379 5375 5370 5365 5361 5358 5354 5351 5349 5345 5341 5337 5335 5334 5332
5542 5530 5525 5524 5525 5523 5520 5514 5509 5503 5495 5488 5481 5474 5466 5458 5450 5443 5436 5431 5425 5420 5414 5406 5399 5394 5390 5386 5379 5371 5364 5358 5353 5350 5348 5345 5341 5339 5339 5336 5332 5329 5328 5324
5522 5519 5516 5519 5516 5508 5505 5502 5495 5489 5482 5475 5467 5460 5453 5444 5437 5431 5424 5419 5413 5407 5401 5395 5388 5383 5379 5374 5369 5362 5354 5347 5342 5340 5338 5335 5333 5332 5330 5330 5331 5328 5324 5325